FW1747 Weather Reports


Display with metric or nautical units.
time (UTC)temp
F
wind
direction
speed
MPH
gust
MPH
rain 1hr
in
rain 24hr
in
rain mn
in
humidity
%
barometer
mb
20260503023025 62 290 0.0 0.0 0.00 0.00 0.00 71 1011.7
20260503021524 62 266 0.0 0.0 0.00 0.00 0.00 71 1012.0
20260503020022 63 113 0.0 0.0 0.00 0.00 0.00 70 1012.4
20260503014521 63 113 0.0 0.0 0.00 0.00 0.00 70 1012.9
20260503013033 63 73 0.0 0.0 0.00 0.00 0.00 69 1013.2
20260503011520 63 77 0.0 0.0 0.00 0.00 0.00 68 1013.2
20260503010022 64 49 0.0 0.0 0.00 0.00 0.00 67 1012.8
20260503004519 65 103 0.0 0.0 0.00 0.00 0.00 66 1012.6
20260503003018 64 290 0.0 0.0 0.00 0.00 0.00 65 1012.5
20260503001517 65 276 0.0 0.0 0.00 0.00 0.00 64 1012.4
20260503000017 65 338 0.0 0.0 0.00 0.00 0.00 65 1012.3
20260502234523 65 353 0.0 1.0 0.00 0.00 0.00 63 1012.4
20260502233027 64 359 0.0 0.0 0.00 0.00 0.00 65 1012.4
20260502231611 64 314 0.0 0.0 0.00 0.00 0.00 66 1012.6
20260502230009 63 342 0.0 0.0 0.00 0.00 0.00 66 1012.9
20260502224505 63 4 0.0 0.0 0.00 0.00 0.00 67 1013.2
20260502223002 62 328 0.0 0.0 0.00 0.00 0.00 68 1013.5
20260502221600 62 1 0.0 0.0 0.00 0.00 0.00 67 1013.7
20260502220058 62 41 0.0 1.0 0.00 0.00 0.00 69 1013.8
20260502214559 61 309 0.0 0.0 0.00 0.00 0.00 69 1013.9
20260502213055 61 75 0.0 1.0 0.00 0.00 0.00 67 1014.0
20260502211555 61 309 0.0 2.0 0.00 0.00 0.00 66 1014.1
20260502210106 61 4 0.0 3.0 0.00 0.00 0.00 67 1014.3
20260502204555 61 297 0.0 0.0 0.00 0.00 0.00 68 1014.5
20260502203051 60 291 0.0 1.0 0.00 0.00 0.00 67 1014.7
20260502201544 59 2 0.0 0.0 0.00 0.00 0.00 67 1014.9
20260502200044 59 304 0.0 1.0 0.00 0.00 0.00 68 1015.0
20260502194537 58 89 0.0 0.0 0.00 0.00 0.00 69 1015.4
20260502193038 58 2 0.0 0.0 0.00 0.00 0.00 70 1015.6
20260502191531 56 356 0.0 1.0 0.00 0.00 0.00 72 1015.6
20260502190037 56 294 0.0 3.0 0.00 0.00 0.00 71 1015.6
20260502184524 56 311 0.0 1.0 0.00 0.00 0.00 72 1016.0
20260502183022 55 305 0.0 1.0 0.00 0.00 0.00 73 1016.2
20260502181528 55 34 0.0 0.0 0.00 0.00 0.00 74 1016.3
20260502163016 52 317 0.0 0.0 0.00 0.00 0.00 76 1016.6
20260502161507 52 359 0.0 1.0 0.00 0.00 0.00 76 1016.6
20260502151513 51 1 0.0 0.0 0.00 0.00 0.00 77 1016.4
20260502123104 49 301 0.0 0.0 0.00 0.00 0.00 79 1016.4
20260502121556 49 301 0.0 0.0 0.00 0.00 0.00 79 1016.5
20260502114557 49 349 0.0 0.0 0.00 0.00 0.00 79 1016.4
20260502113056 49 349 0.0 0.0 0.00 0.00 0.00 79 1016.3
20260502111558 50 349 0.0 0.0 0.00 0.00 0.00 78 1016.3
20260502110053 50 352 0.0 0.0 0.00 0.00 0.00 77 1016.4
20260502104549 51 315 0.0 0.0 0.00 0.00 0.00 75 1016.2
20260502103054 51 315 0.0 0.0 0.00 0.00 0.00 74 1016.4
20260502101557 51 314 0.0 0.0 0.00 0.00 0.00 74 1016.3
20260502100108 51 238 0.0 0.0 0.00 0.00 0.00 74 1016.3
20260502071524 53 283 0.0 1.0 0.00 0.00 0.00 70 1017.1
20260502070022 53 36 0.0 0.0 0.00 0.00 0.00 70 1017.4
20260502064521 54 338 0.0 0.0 0.00 0.00 0.00 71 1017.2
20260502063020 54 217 0.0 0.0 0.00 0.00 0.00 72 1017.2
20260502061532 54 285 0.0 0.0 0.00 0.00 0.00 72 1017.1
20260502060022 54 260 0.0 0.0 0.00 0.00 0.00 73 1017.2
20260502054519 53 299 0.0 0.0 0.00 0.00 0.00 73 1017.2
20260502053018 54 240 0.0 0.0 0.00 0.00 0.00 73 1017.2
20260502051523 54 316 0.0 0.0 0.00 0.00 0.00 73 1016.9
20260502050022 54 328 0.0 0.0 0.00 0.00 0.00 73 1016.8
20260502044520 54 313 0.0 0.0 0.00 0.00 0.00 72 1016.6
20260502043021 54 269 0.0 0.0 0.00 0.00 0.00 72 1016.6
20260502041524 54 318 0.0 0.0 0.00 0.00 0.00 71 1016.4
20260502040017 55 67 0.0 1.0 0.00 0.00 0.00 70 1016.3
20260502034515 56 359 0.0 1.0 0.00 0.00 0.00 68 1016.0
20260502033023 56 316 0.0 0.0 0.00 0.00 0.00 67 1015.9
20260502031515 57 248 0.0 1.0 0.00 0.00 0.00 66 1015.7
20260502030014 58 305 0.0 0.0 0.00 0.00 0.00 64 1015.5
20260502024514 59 268 0.0 1.0 0.00 0.00 0.00 63 1015.3